TG8AKV-17 Weather Reports


time (UTC)temp
F
wind
direction
speed
knots
gust
knots
rain 1hr
in
rain 24hr
in
rain mn
in
humidity
%
barometer
mb
20260502195552 77 140 5.2 0.0 0.00 0.00 0.00 38 1013.0
20260502194551 77 360 7.0 0.0 0.00 0.00 0.00 46 1013.0
20260502193550 77 360 7.0 0.0 0.00 0.00 0.00 46 1013.0
20260502192550 77 360 7.0 0.0 0.00 0.00 0.00 45 1014.0
20260502191549 77 360 7.0 0.0 0.00 0.00 0.00 43 1014.0
20260502190548 77 360 7.0 0.0 0.00 0.00 0.00 39 1014.0
20260502185548 77 360 7.8 0.0 0.00 0.00 0.00 41 1014.0
20260502184547 77 360 7.8 0.0 0.00 0.00 0.00 41 1014.0
20260502183547 77 360 7.8 0.0 0.00 0.00 0.00 42 1014.0
20260502182546 76 360 7.8 0.0 0.00 0.00 0.00 44 1015.0
20260502181545 75 360 7.8 0.0 0.00 0.00 0.00 49 1015.0
20260502180545 73 360 7.8 0.0 0.00 0.00 0.00 51 1015.0
20260502163539 67 0 0.0 0.0 0.00 0.00 0.00 58 1016.0
20260502162538 67 0 0.0 0.0 0.00 0.00 0.00 58 1016.0
20260502161538 66 0 0.0 0.0 0.00 0.00 0.00 59 1016.0
20260502160536 64 0 0.0 0.0 0.00 0.00 0.00 61 1016.0
20260502151533 64 0 0.0 0.0 0.00 0.00 0.00 67 1016.0
20260502150532 59 0 0.0 0.0 0.00 0.00 0.00 63 1016.0
20260502130525 48 0 0.0 0.0 0.00 0.00 0.00 96 1017.0
20260502123522 49 21 0.9 3.5 0.00 0.00 0.00 96 1017.0
20260502122521 49 21 0.9 3.5 0.00 0.00 0.00 95 1017.0
20260502121521 49 21 0.9 3.5 0.00 0.00 0.00 93 1017.0
20260502120520 50 21 0.9 3.5 0.00 0.00 0.00 90 1017.0
20260502115519 50 21 0.9 3.5 0.00 0.00 0.00 90 1017.0
20260502114519 50 21 0.9 3.5 0.00 0.00 0.00 90 1017.0
20260502113518 50 21 0.9 3.5 0.00 0.00 0.00 90 1017.0
20260502112517 50 21 1.7 3.5 0.00 0.00 0.00 90 1016.0
20260502111517 53 30 0.9 0.9 0.00 0.00 0.00 88 1016.0
20260502110516 53 30 0.9 0.9 0.00 0.00 0.00 88 1016.0
20260502105516 53 30 0.9 0.9 0.00 0.00 0.00 88 1016.0
20260502104515 53 30 0.9 0.9 0.00 0.00 0.00 88 1016.0
20260502103514 53 30 0.9 0.9 0.00 0.00 0.00 89 1016.0
20260502102514 53 30 0.9 0.9 0.00 0.00 0.00 90 1016.0
20260502101513 53 30 0.9 0.9 0.00 0.00 0.00 90 1016.0
20260502100512 53 30 0.9 0.9 0.00 0.00 0.00 90 1016.0
20260502091510 53 30 0.9 0.9 0.00 0.00 0.00 89 1016.0
20260502090509 53 30 0.9 0.9 0.00 0.00 0.00 89 1016.0
20260502071502 54 30 0.9 0.9 0.00 0.00 0.00 93 1017.0
20260502070501 54 30 0.9 0.9 0.00 0.00 0.00 93 1017.0
20260502065500 54 30 0.9 0.9 0.00 0.00 0.00 93 1017.0
20260502064500 54 30 0.9 0.9 0.00 0.00 0.00 93 1017.0
20260502063459 54 30 0.9 0.9 0.00 0.00 0.00 93 1017.0
20260502062459 54 30 0.9 0.9 0.00 0.00 0.00 93 1017.0
20260502061458 54 30 0.9 0.9 0.00 0.00 0.00 93 1017.0
20260502060457 54 30 0.9 0.9 0.00 0.00 0.00 92 1017.0
20260502055457 54 30 0.9 0.9 0.00 0.00 0.00 92 1017.0
20260502054456 54 30 0.9 0.9 0.00 0.00 0.00 92 1017.0
20260502053455 54 30 0.9 0.9 0.00 0.00 0.00 92 1017.0
20260502052455 54 30 0.9 0.9 0.00 0.00 0.00 92 1017.0
20260502051454 55 30 0.9 0.9 0.00 0.00 0.00 92 1017.0
20260502050453 55 30 0.9 0.9 0.00 0.00 0.00 92 1017.0
20260502045453 55 30 0.9 0.9 0.00 0.00 0.00 92 1017.0
20260502044452 56 30 0.9 0.9 0.00 0.00 0.00 92 1017.0
20260502043452 56 30 0.9 0.9 0.00 0.00 0.00 92 1017.0
20260502042451 56 30 0.9 0.9 0.00 0.00 0.00 92 1017.0
20260502041450 57 30 0.9 0.9 0.00 0.00 0.00 92 1017.0
20260502040450 57 30 0.9 0.9 0.00 0.00 0.00 92 1017.0
20260502035449 57 30 0.9 0.9 0.00 0.00 0.00 92 1017.0
20260502034448 57 30 0.9 0.9 0.00 0.00 0.00 91 1017.0
20260502033448 57 30 0.9 0.9 0.00 0.00 0.00 91 1017.0
20260502032447 57 30 0.9 0.9 0.00 0.00 0.00 91 1016.0
20260502031446 58 30 0.9 0.9 0.00 0.00 0.00 91 1016.0
20260502030446 58 30 0.9 0.9 0.00 0.00 0.00 91 1016.0
20260502025445 58 30 0.9 0.9 0.00 0.00 0.00 91 1016.0
20260502024445 58 30 0.9 0.9 0.00 0.00 0.00 91 1016.0
20260502023444 59 30 0.9 0.9 0.00 0.00 0.00 91 1016.0
20260502022443 59 30 0.9 0.9 0.00 0.00 0.00 91 1015.0
20260502021443 59 30 0.9 0.9 0.00 0.00 0.00 90 1015.0
20260502020442 59 30 0.9 0.9 0.00 0.00 0.00 90 1015.0
20260502015442 59 30 0.9 0.9 0.00 0.00 0.00 90 1015.0
20260502014441 59 30 0.9 0.9 0.00 0.00 0.00 90 1015.0
20260502013440 59 30 0.9 0.9 0.00 0.00 0.00 90 1015.0
20260502012440 59 124 0.0 0.0 0.00 0.00 0.00 90 1014.0
20260502011439 59 124 0.0 0.0 0.00 0.00 0.00 90 1014.0
20260502010439 59 124 0.0 0.0 0.00 0.00 0.00 89 1014.0
20260502005438 59 124 0.0 0.0 0.00 0.00 0.00 92 1014.0
20260502004437 59 124 0.0 0.0 0.00 0.00 0.00 94 1014.0
20260502003437 65 0 0.0 0.0 0.00 0.00 0.00 76 1014.0
20260502002436 64 185 0.9 0.0 0.00 0.00 0.00 77 1013.0
20260502001436 63 185 0.9 0.0 0.00 0.00 0.00 82 1013.0
20260502000435 60 185 0.9 0.0 0.00 0.00 0.00 89 1013.0
20260501235435 60 185 0.9 0.0 0.00 0.00 0.00 90 1013.0
20260501234434 60 185 1.7 0.0 0.00 0.00 0.00 93 1013.0
20260501233433 67 140 5.2 0.0 0.00 0.00 0.00 73 1013.0
20260501232433 68 140 5.2 0.0 0.00 0.00 0.00 69 1013.0
20260501231432 68 140 5.2 0.0 0.00 0.00 0.00 69 1013.0
20260501230432 66 140 5.2 0.0 0.00 0.00 0.00 78 1013.0
20260501225431 64 206 4.3 4.3 0.00 0.00 0.00 87 1013.0
20260501224431 64 206 4.3 4.3 0.00 0.00 0.00 90 1013.0
20260501223430 64 206 4.3 4.3 0.00 0.00 0.00 89 1013.0
20260501222429 64 206 4.3 4.3 0.00 0.00 0.00 88 1012.0
20260501221429 64 206 4.3 4.3 0.00 0.00 0.00 86 1013.0
20260501220428 64 206 4.3 4.3 0.00 0.00 0.00 84 1013.0
20260501215427 64 206 4.3 4.3 0.00 0.00 0.00 84 1013.0
20260501214427 64 206 4.3 4.3 0.00 0.00 0.00 84 1013.0
20260501213426 64 206 4.3 4.3 0.00 0.00 0.00 84 1013.0
20260501212426 64 206 4.3 4.3 0.00 0.00 0.00 84 1013.0
20260501211425 64 206 4.3 4.3 0.00 0.00 0.00 84 1013.0
20260501210425 64 206 4.3 4.3 0.00 0.00 0.00 84 1013.0
20260501205424 64 206 4.3 4.3 0.00 0.00 0.00 84 1013.0
20260501204423 64 206 4.3 4.3 0.00 0.00 0.00 84 1013.0
20260501203423 64 206 4.3 4.3 0.00 0.00 0.00 84 1013.0
20260501202422 64 206 4.3 4.3 0.00 0.00 0.00 84 1013.0
20260501201422 64 206 5.2 4.3 0.00 0.00 0.00 84 1013.0